Regional Weather Roundup
Issued by NWS Charleston, WV

Home | Current Version | Previous Version | Text Only | Print | Product List | Glossary Off
Versions: 1 2 3 4 5 6 7 8 9 10 11 12 13 14 15 16 17 18 19 20 21 22 23 24 25 26 27 28

000
ASUS41 KRLX 241710
RWRRLX
West Virginia Regional Weather Roundup
National Weather Service Charleston WV
100 PM EDT FRI OCT 24 2014

Note: "fair" indicates few or no clouds below 12,000 feet with no
significant weather and/or obstructions to visibility.

WVZ003-241800-
Northern Panhandle of West Virginia

CITY           SKY/WX    TMP DP  RH WIND       PRES   REMARKS
WHEELING       SUNNY     55  40  56 VRB7      30.07F
$$

WVZ009-241800-
Northwest West Virginia

CITY           SKY/WX    TMP DP  RH WIND       PRES   REMARKS
PARKERSBURG    CLOUDY    60  44  55 NW7       30.12F
$$

WVZ006-241800-
Western West Virginia

CITY           SKY/WX    TMP DP  RH WIND       PRES   REMARKS
HUNTINGTON     SUNNY     60  44  55 CALM      30.10F
$$

WVZ015-241800-
West Central West Virginia

CITY           SKY/WX    TMP DP  RH WIND       PRES   REMARKS
CHARLESTON     PTSUNNY   56  43  61 S5        30.11F
$$

WVZ022-031-241800-
North Central West Virginia

CITY           SKY/WX    TMP DP  RH WIND       PRES   REMARKS
CLARKSBURG     MOSUNNY   55  42  61 W5        30.08F
MORGANTOWN     MOSUNNY   56  39  53 VRB3      30.08F
$$

WVZ025-035-042-045-241800-
Southern West Virginia

CITY           SKY/WX    TMP DP  RH WIND       PRES   REMARKS
BECKLEY        MOSUNNY   51  41  68 W5        30.10F
LOGAN            N/A     54  45  71 CALM      30.11F
BLUEFIELD      PTSUNNY   57  40  52 VRB3      30.10F
LEWISBURG      MOSUNNY   57  42  57 SW5       30.07F
$$

WVZ047-241800-
Northern Mountains of West Virginia

CITY           SKY/WX    TMP DP  RH WIND       PRES   REMARKS
ELKINS         MOSUNNY   56  41  57 VRB5      30.07F
$$

WVZ052-241800-
Eastern Panhandle of West Virginia

CITY           SKY/WX    TMP DP  RH WIND       PRES   REMARKS
MARTINSBURG    MOSUNNY   64  34  32 NW14      29.98F
PETERSBURG     CLOUDY    58  38  45 CALM      30.03F
$$



USA.gov is the U.S. government's official web portal to all federal, state and local government web resources and services.